Starlink 5769

operational
NORAD ID: 55585 Int'l Des: 2023-020 Owner: SPXS Country: US Constellation: starlink
LEOCIRCULAR

Über Starlink 5769

Beschreibung wird geladen...

Live-Position

3D-Globus wird geladen...

Nächste Überflüge

Höhenverlauf

Altitude vs Time

uPlot chart will show altitude changes over time

Zweizeiliger Elementsatz

1 55585U 23020S 25305.51341336 -.00000101 00000-0 76142-5 0 9994
2 55585 43.0043 328.5520 0001224 267.3043 92.7660 15.02535654149788
Epoch: 1. Nov. 2025 • Age: 15 hours

Aktueller Status

Höhe 559.1 km
Geschwindigkeit 7.59 km/s
Subsatellitenpunkt 21.96°N, 93.32°W
Startdatum 12. Feb. 2023
Alter 2.7 years
Typ internet

Technische Details

Klassifizierung Payload
Masse 305.00 kg
Trockenmasse 290.00 kg
Gesamtmasse 305.00 kg
Länge 0.20 m
Durchmesser 2.80 m
Spannweite 9.00 m
Form Box + pan
Hersteller SPXS
Bus-Typ Starlink
Phasenstatus In Orbit
Besitzer/Staat SPXS/US

Große Konstellationen

Loading constellations...